Location: Central Falls
(41.8900°N, 71.3929°W)
Time: 04:41:35
(UTC+00:00)

Vanguard 2 Rocket - Pass Details

Date: 12 December 2023
Orbit: 555 x 3309 km, 32.9° (Epoch: 01 March)

Event Time Altitude Azimuth Distance (km) Brightness Sun altitude
Rises 19:00:51 0° 256° (WSW) 5,651 11.7 17.2°
Reaches altitude 10° 19:04:04 10° 253° (WSW) 4,950 11.6 16.9°
Maximum altitude 19:19:29 64° 177° (S) 3,326 10.3 15.2°
Drops below altitude 10° 19:39:24 10° 102° (ESE) 6,185 10.9 12.8°
Sets 19:44:00 0° 100° (E) 7,070 11.1 12.3°
